sat.trackr.live / text

‹ back to catalog

STARLINK-2495

NORAD 48325 · 2021-036BB

PAYLOAD ACTIVE UNKNOWN

§ Identity

Operator
Country
US
Launch date
2021-04-29
Launch site
AFETR
Launch vehicle
Mass (kg)
RCS (m²)

Purposes: comms

External: N2YO · Heavens-Above · Gunter

§ Orbital elements

Epoch: 2026-05-25T03:49:12.103968Z

Period
94.01 min
Inclination
53.1607°
Eccentricity
0.0001346
Mean motion
15.31704242 rev/d
Perigee alt
469.8 km
Apogee alt
471.6 km
Semi-major
6,848.9 km
B*
2.8450e-5
RAAN
105.5112°
Arg perigee
85.3694°
Mean anomaly
274.7461°
Rev number
27,975

§ Raw data

STARLINK-24951 48325U 21036BB  26145.15916787  .00000518  00000+0  28450-4 0  99922 48325  53.1607 105.5112 0001346  85.3694 274.7461 15.31704242279750

JSON: /api/v1/satellites/48325 · /tle

For live sub-satellite position, see the globe view (requires WebGL).

§ Visibility from observer

Set your observer location to see the next 7 days of passes ≥ 10°. The values pass through the URL so the page stays shareable.

No JS? Fill the form by hand. The geolocation button needs JavaScript.